Stations météo

Publicité
Hyeres, France (7667): Température de l'air & dewpoint: 19.11.2020 23:00:00 - 25.11.2020 23:00:00 (CET)Hyeres, France (7667): Température de l'air 5cm: 19.11.2020 23:00:00 - 25.11.2020 23:00:00 (CET)Hyeres, France (7667): Vitesse du vent & gusts: 19.11.2020 23:00:00 - 25.11.2020 23:00:00 (CET)Hyeres, France (7667): Direction du vent: 19.11.2020 23:00:00 - 25.11.2020 23:00:00 (CET)Hyeres, France (7667): reduced air pressure: 19.11.2020 23:00:00 - 25.11.2020 23:00:00 (CET)Hyeres, France (7667): visibility: 19.11.2020 23:00:00 - 25.11.2020 23:00:00 (CET)Hyeres, France (7667): Quantités de précipitations: 19.11.2020 23:00:00 - 25.11.2020 23:00:00 (CET)
Date & Time tt [°C] td [°C] tt 5cm [°C] ff [km/h] ff [knt] fx [km/h] fx [knt] dd ppp [hPa] vv [km] rr [mm]
25.11.2020 23:00:00 12,2 8,7 8,5 13 7 19 10 N 1022,3 46 0,0
25.11.2020 22:00:00 12,4 8,5 8,3 11 6 17 9 N 1022,3 49 0,0
25.11.2020 21:00:00 11,9 8,0 7,0 11 6 16 9 N 1022,0 54 0,0
25.11.2020 20:00:00 11,4 7,5 7,1 11 6 16 9 N 1021,9 43 0,0
25.11.2020 19:00:00 12,2 7,7 8,2 10 5 15 8 NNE 1021,6 41 0,0
25.11.2020 18:00:00 12,6 7,5 8,3 11 6 27 14 NNE 1021,3 29 0,0
25.11.2020 17:00:00 13,8 7,3 9,7 18 10 34 19 E 1020,9 60 0,0
25.11.2020 16:00:00 14,4 8,3 10,4 17 9 34 18 E 1020,8 59 0,0
25.11.2020 15:00:00 15,0 8,2 11,9 22 12 36 20 E 1020,9 48 0,0
25.11.2020 14:00:00 15,9 7,1 13,4 23 12 34 19 E 1021,1 58 0,0
25.11.2020 13:00:00 15,9 7,6 14,1 18 10 31 17 E 1021,6 60 0,0
25.11.2020 12:00:00 15,8 7,8 13,7 19 11 30 16 E 1022,0 60 0,0
25.11.2020 11:00:00 13,7 7,9 9,3 8 4 13 7 NNE 1022,5 18 0,0
25.11.2020 10:00:00 10,1 6,4 4,9 11 6 16 9 NW 1022,5 19 0,0
25.11.2020 09:00:00 7,4 5,5 1,6 8 4 13 7 N 1022,3 20 0,0
25.11.2020 08:00:00 5,2 4,2 0,4 8 4 10 6 N 1022,3 19 0,0
25.11.2020 07:00:00 5,2 4,3 0,0 6 3 11 6 N 1022,1 20 0,0
25.11.2020 06:00:00 4,8 3,0 0,6 10 5 13 7 NNE 1021,9 19 0,0
25.11.2020 05:00:00 7,1 4,6 1,8 5 3 10 5 N 1022,1 15 0,0
25.11.2020 04:00:00 6,3 4,1 0,2 6 4 11 6 N 1022,0 37 0,0
25.11.2020 03:00:00 6,0 3,5 1,2 7 4 10 5 N 1022,4 20 0,0
25.11.2020 02:00:00 6,8 3,9 0,6 5 3 10 5 N 1022,7 19 0,0
25.11.2020 01:00:00 6,8 4,1 0,4 6 3 10 5 N 1023,1 37 0,0
25.11.2020 00:00:00 6,9 3,7 1,6 4 2 8 5 N 1023,6 17 0,0
24.11.2020 23:00:00 7,4 4,2 0,9 6 4 16 9 N 1023,8 20 0,0
24.11.2020 22:00:00 6,8 3,8 1,9 3 2 10 6 N 1023,8 17 0,0
24.11.2020 21:00:00 7,8 4,4 1,2 4 2 10 6 NNW 1024,0 15 0,0
24.11.2020 20:00:00 7,1 4,4 2,4 4 2 15 8 NW 1024,0 12 0,0
24.11.2020 19:00:00 9,5 4,5 3,2 10 5 24 13 NNE 1023,8 24 0,0
24.11.2020 18:00:00 13,0 5,2 8,4 14 7 23 12 E 1023,7 60 0,0
24.11.2020 17:00:00 13,5 5,1 9,2 14 8 26 14 ESE 1023,6 60 0,0
24.11.2020 16:00:00 15,1 5,3 13,5 14 8 23 12 ESE 1023,6 60 0,0
24.11.2020 15:00:00 15,7 5,6 15,1 13 7 23 13 SE 1023,9 44 0,0
24.11.2020 14:00:00 15,6 8,1 12,7 13 7 22 12 E 1024,3 60 0,0
24.11.2020 13:00:00 14,8 8,1 11,8 12 6 24 13 E 1024,7 60 0,0
24.11.2020 12:00:00 15,2 9,1 13,2 16 8 27 15 E 1025,3 56 0,0
24.11.2020 11:00:00 14,7 7,7 9,0 17 9 26 14 E 1025,8 18 0,0
24.11.2020 10:00:00 10,3 7,9 6,5 5 3 8 4 NNW 1025,7 10 0,0
24.11.2020 09:00:00 8,9 7,0 4,7 4 2 10 6 N 1025,8 5 0,0
24.11.2020 08:00:00 8,1 6,6 3,4 5 3 9 5 N 1025,5 20 0,0
24.11.2020 07:00:00 8,5 6,5 4,7 5 3 11 6 N 1025,1 31 0,0
24.11.2020 06:00:00 8,3 6,6 1,8 6 3 10 6 NNW 1024,8 31 0,0
24.11.2020 05:00:00 6,6 5,1 1,5 5 3 11 6 NNW 1024,9 26 0,0
24.11.2020 04:00:00 7,0 5,3 2,8 6 4 15 8 N 1025,0 25 0,0
24.11.2020 03:00:00 6,8 5,1 2,4 5 3 10 5 N 1025,4 20 0,0
24.11.2020 02:00:00 6,5 4,8 1,9 7 4 11 6 NNW 1025,6 20 0,0
24.11.2020 01:00:00 6,2 4,4 0,6 6 3 10 5 N 1025,9 20 0,0
24.11.2020 00:00:00 5,2 3,8 0,7 5 3 8 4 NNW 1026,1 20 0,0
23.11.2020 23:00:00 5,7 3,9 0,4 5 3 8 5 N 1026,1 20 0,0
23.11.2020 22:00:00 5,9 3,7 0,4 5 3 9 5 N 1026,1 15 0,0
23.11.2020 21:00:00 6,1 4,4 0,7 5 3 9 5 NNE 1026,0 11 0,0
23.11.2020 20:00:00 7,4 4,7 1,7 3 2 10 5 N 1026,0 14 0,0
23.11.2020 19:00:00 11,1 5,6 5,0 4 2 16 9 WNW 1025,7 20 0,0
23.11.2020 18:00:00 11,9 5,5 6,1 9 5 15 8 WNW 1025,5 59 0,0
23.11.2020 17:00:00 12,9 6,5 8,4 8 4 26 14 W 1025,4 59 0,0
23.11.2020 16:00:00 14,3 7,3 11,3 14 8 32 17 W 1025,6 49 0,0
23.11.2020 15:00:00 15,0 8,0 14,1 21 12 34 18 SW 1025,7 45 0,0
23.11.2020 14:00:00 15,0 7,8 15,0 19 11 30 16 WSW 1026,0 56 0,0
23.11.2020 13:00:00 14,6 7,9 15,6 16 9 24 13 SW 1026,7 60 0,0
23.11.2020 12:00:00 14,7 7,3 15,4 14 8 21 11 SW 1027,5 20 0,0
23.11.2020 11:00:00 14,7 7,0 11,9 4 2 8 4 W 1028,3 18 0,0
23.11.2020 10:00:00 10,6 5,8 5,5 4 2 11 6 NW 1028,3 16 0,0
23.11.2020 09:00:00 8,0 5,1 1,3 4 2 9 5 N 1028,0 26 0,0
23.11.2020 08:00:00 5,0 3,2 0,5 7 4 10 5 N 1027,8 42 0,0
23.11.2020 07:00:00 5,2 3,5 0,3 6 3 9 5 N 1027,9 52 0,0
23.11.2020 06:00:00 4,5 2,8 0,1 6 3 10 5 N 1028,0 53 0,0
23.11.2020 05:00:00 5,9 3,9 -0,7 7 4 10 6 N 1028,2 59 0,0
23.11.2020 04:00:00 5,8 3,6 0,3 6 4 10 6 N 1028,5 49 0,0
23.11.2020 03:00:00 6,1 3,3 0,8 6 4 11 6 NNW 1028,9 59 0,0
23.11.2020 02:00:00 7,0 4,1 1,8 6 3 15 8 NNW 1028,8 53 0,0
23.11.2020 01:00:00 7,8 4,9 3,0 11 6 16 9 NW 1028,9 48 0,0
23.11.2020 00:00:00 8,0 5,3 3,3 10 6 15 8 NW 1029,2 41 0,0
22.11.2020 23:00:00 8,4 5,3 3,0 11 6 13 7 NW 1029,3 35 0,0
22.11.2020 22:00:00 11,2 6,1 6,2 4 2 8 5 N 1029,2 39 0,0
22.11.2020 21:00:00 10,4 6,5 5,9 7 4 10 6 N 1028,9 19 0,0
22.11.2020 20:00:00 11,5 7,0 7,2 5 3 17 9 NNE 1028,9 41 0,0
22.11.2020 19:00:00 13,4 6,9 9,5 10 5 20 11 ESE 1028,5 60 0,0
22.11.2020 18:00:00 13,2 7,2 8,8 12 6 22 12 ESE 1028,0 60 0,0
22.11.2020 17:00:00 13,4 7,4 8,9 11 6 23 12 SE 1027,5 59 0,0
22.11.2020 16:00:00 15,4 7,7 14,8 8 4 20 11 S 1026,9 47 0,0
22.11.2020 15:00:00 15,6 7,4 16,0 10 5 21 11 SSW 1026,9 20 0,0
22.11.2020 14:00:00 15,7 6,7 16,4 13 7 19 10 SW 1027,2 53 0,0
22.11.2020 13:00:00 16,6 6,4 16,9 7 4 16 9 W 1028,0 60 0,0
22.11.2020 12:00:00 14,9 5,7 17,0 5 3 16 9 NNW 1028,7 60 0,0
22.11.2020 11:00:00 14,2 5,8 13,4 4 2 10 5 NW 1029,0 20 0,0
22.11.2020 10:00:00 11,8 5,4 5,9 6 4 11 6 NW 1029,1 19 0,0
22.11.2020 09:00:00 9,1 5,1 3,0 6 3 11 6 N 1028,9 51 0,0
22.11.2020 08:00:00 6,6 3,9 1,0 9 5 14 8 NW 1028,7 60 0,0
22.11.2020 07:00:00 5,9 3,6 0,7 11 6 15 8 NNW 1028,7 60 0,0
22.11.2020 06:00:00 6,5 3,8 1,5 10 6 19 10 NW 1028,5 60 0,0
22.11.2020 05:00:00 6,7 4,2 1,3 5 3 16 9 N 1028,4 56 0,0
22.11.2020 04:00:00 6,5 4,3 0,0 8 4 13 7 NNW 1028,7 46 0,0
22.11.2020 03:00:00 6,6 4,1 1,2 8 4 17 9 NNW 1029,0 45 0,0
22.11.2020 02:00:00 7,0 4,1 1,9 10 5 17 9 NW 1029,2 31 0,0
22.11.2020 01:00:00 6,5 4,5 0,6 4 2 15 8 NNW 1029,4 35 0,0
22.11.2020 00:00:00 7,3 4,3 0,9 5 3 16 9 N 1029,4 48 0,0
21.11.2020 23:00:00 7,7 4,5 1,0 9 5 12 7 NNW 1029,4 20 0,0
21.11.2020 22:00:00 6,1 4,4 0,2 6 3 14 8 N 1029,6 16 0,0
21.11.2020 21:00:00 7,9 5,2 2,1 10 5 15 8 NW 1029,5 21 0,0
21.11.2020 20:00:00 8,4 5,9 2,7 6 3 12 6 NNW 1029,5 14 0,0
21.11.2020 19:00:00 9,7 6,2 3,9 4 2 8 4 NNW 1029,1 13 0,0
21.11.2020 18:00:00 10,4 6,5 4,3 5 3 8 4 NE 1029,1 13 0,0
21.11.2020 17:00:00 13,6 6,5 7,3 3 1 14 8 WNW 1028,7 15 0,0
21.11.2020 16:00:00 15,4 6,4 12,3 11 6 15 8 W 1028,3 59 0,0
21.11.2020 15:00:00 16,3 3,7 16,8 4 2 19 10 NNW 1028,4 59 0,0
21.11.2020 14:00:00 16,6 4,3 16,4 5 3 15 8 NNE 1028,6 55 0,0
21.11.2020 13:00:00 16,0 5,6 15,1 4 2 21 11 NNE 1028,8 46 0,0
21.11.2020 12:00:00 15,3 4,6 15,4 15 8 24 13 E 1029,0 20 0,0
21.11.2020 11:00:00 15,2 5,1 15,2 14 8 23 12 NE 1029,4 60 0,0
21.11.2020 10:00:00 13,7 4,8 6,9 8 4 14 7 N 1028,8 20 0,0
21.11.2020 09:00:00 9,3 3,5 3,1 6 3 10 5 N 1028,5 58 0,0
21.11.2020 08:00:00 6,8 2,1 1,9 6 3 19 10 N 1027,8 60 0,0
21.11.2020 07:00:00 6,0 0,9 0,3 6 3 15 8 N 1027,0 60 0,0
21.11.2020 06:00:00 7,9 0,8 2,3 8 4 18 10 N 1026,6 60 0,0
21.11.2020 05:00:00 7,6 0,8 2,9 12 7 20 11 NW 1026,1 60 0,0
21.11.2020 04:00:00 8,0 0,5 3,1 8 4 18 10 NNW 1025,5 60 0,0
21.11.2020 03:00:00 8,2 0,4 3,4 10 5 19 10 NW 1025,4 60 0,0
21.11.2020 02:00:00 8,7 0,4 3,4 12 7 21 11 NW 1024,8 60 0,0
21.11.2020 01:00:00 8,7 0,4 2,2 8 4 16 8 NNW 1024,7 60 0,0
21.11.2020 00:00:00 9,6 -0,1 4,3 9 5 22 12 NNW 1024,5 60 0,0
20.11.2020 23:00:00 10,5 -0,1 4,5 13 7 25 13 NW 1024,3 60 0,0
20.11.2020 22:00:00 11,1 0,2 5,0 13 7 22 12 NNW 1024,1 60 0,0
20.11.2020 21:00:00 10,1 0,9 5,1 15 8 22 12 NNW 1023,5 60 0,0
20.11.2020 20:00:00 11,9 1,5 2,9 14 8 19 10 NW 1023,0 60 0,0
20.11.2020 19:00:00 9,6 2,7 3,2 9 5 16 9 N 1022,5 60 0,0
20.11.2020 18:00:00 10,9 3,2 3,4 6 3 10 5 N 1022,0 31 0,0
20.11.2020 17:00:00 15,6 3,4 7,5 2 1 10 5 W 1021,5 60 0,0
20.11.2020 16:00:00 17,7 2,4 16,3 7 4 18 10 SW 1021,2 51 0,0
20.11.2020 15:00:00 18,0 2,3 18,8 7 4 20 11 NNW 1021,2 57 0,0
20.11.2020 14:00:00 17,5 1,4 18,3 11 6 26 14 N 1021,3 46 0,0
20.11.2020 13:00:00 17,4 0,9 17,3 17 9 32 17 N 1021,6 34 0,0
20.11.2020 12:00:00 16,4 0,1 16,1 16 9 38 20 N 1021,6 30 0,0
20.11.2020 11:00:00 15,4 -0,4 14,6 24 13 45 24 N 1021,4 26 0,0
20.11.2020 10:00:00 14,1 -0,8 9,5 26 14 48 26 N 1021,3 17 0,0
20.11.2020 09:00:00 12,9 -1,8 8,3 29 15 50 27 NNW 1021,0 7 0,0
20.11.2020 08:00:00 12,6 -2,9 8,1 23 13 53 29 N 1020,0 47 0,0
20.11.2020 07:00:00 12,6 -2,9 8,1 32 17 65 35 NNW 1018,7 60 0,0
20.11.2020 06:00:00 12,6 -2,5 8,4 36 19 63 34 NNW 1018,5 60 0,0
20.11.2020 05:00:00 12,8 -2,3 8,0 38 21 74 40 NNW 1018,2 60 0,0
20.11.2020 04:00:00 12,6 -1,7 7,8 35 19 79 43 NNW 1018,4 60 0,0
20.11.2020 03:00:00 12,5 -1,1 8,3 51 28 87 47 NW 1017,3 60 0,0
20.11.2020 02:00:00 12,8 -1,5 8,1 46 25 83 45 NW 1019,2 60 0,0
20.11.2020 01:00:00 12,8 -2,3 8,5 32 18 68 37 NW 1020,9 60 0,0
20.11.2020 00:00:00 13,7 -3,1 8,8 38 21 72 39 NW 1019,8 60 0,0
19.11.2020 23:00:00 14,2 -2,7 8,3 36 19 63 34 NW 1019,4 60 0,0

tt = Température de l'air
td = dewpoint
tt 5cm = Température de l'air 5cm
ff = Vitesse du vent
fx = gusts
dd = Direction du vent
ppp = reduced air pressure
vv = visibility
rr = Quantités de précipitations

stations d'obs. à proximité